| time (UTC) | temp F | wind direction | speed MPH | gust MPH | rain 1hr in | rain 24hr in | rain mn in | humidity % | barometer mb |
| 20260506182536 | 60 | 243 | 9.0 | 12.0 | 0.01 | 0.12 | 0.12 | 88 | 1042.5 |
| 20260506180634 | 60 | 234 | 8.0 | 14.0 | 0.01 | 0.12 | 0.12 | 90 | 1042.6 |
| 20260506175637 | 60 | 236 | 12.0 | 15.0 | 0.02 | 0.12 | 0.12 | 89 | 1042.6 |
| 20260506174637 | 60 | 237 | 12.0 | 18.0 | 0.02 | 0.12 | 0.12 | 89 | 1042.5 |
| 20260506173636 | 61 | 226 | 12.0 | 17.0 | 0.02 | 0.12 | 0.12 | 88 | 1042.7 |
| 20260506172638 | 61 | 226 | 9.0 | 13.0 | 0.02 | 0.11 | 0.11 | 88 | 1042.8 |
| 20260506170635 | 61 | 234 | 11.0 | 15.0 | 0.03 | 0.11 | 0.11 | 88 | 1042.9 |
| 20260506164738 | 60 | 235 | 8.0 | 12.0 | 0.04 | 0.10 | 0.10 | 89 | 1043.0 |
| 20260506163837 | 60 | 213 | 9.0 | 14.0 | 0.05 | 0.10 | 0.10 | 89 | 1042.6 |
| 20260506162936 | 60 | 215 | 6.0 | 10.0 | 0.05 | 0.09 | 0.09 | 88 | 1042.5 |
| 20260506161936 | 61 | 236 | 12.0 | 17.0 | 0.06 | 0.09 | 0.09 | 88 | 1042.7 |
| 20260506160935 | 61 | 215 | 11.0 | 18.0 | 0.06 | 0.08 | 0.08 | 87 | 1043.3 |
| 20260506155938 | 61 | 228 | 6.0 | 9.0 | 0.05 | 0.07 | 0.07 | 88 | 1043.7 |
| 20260506154937 | 61 | 224 | 14.0 | 19.0 | 0.05 | 0.06 | 0.06 | 88 | 1043.9 |
| 20260506153937 | 61 | 221 | 10.0 | 13.0 | 0.05 | 0.05 | 0.05 | 88 | 1044.1 |
| 20260506152939 | 61 | 219 | 8.0 | 14.0 | 0.04 | 0.04 | 0.04 | 87 | 1044.1 |
| 20260506151936 | 62 | 236 | 6.0 | 8.0 | 0.03 | 0.03 | 0.03 | 86 | 1044.1 |
| 20260506150936 | 62 | 217 | 6.0 | 8.0 | 0.02 | 0.02 | 0.02 | 85 | 1043.7 |
| 20260506150035 | 62 | 225 | 6.0 | 8.0 | 0.02 | 0.02 | 0.02 | 82 | 1043.9 |
| 20260506145052 | 63 | 226 | 9.0 | 13.0 | 0.01 | 0.01 | 0.01 | 80 | 1043.8 |
| 20260506144135 | 63 | 221 | 9.0 | 12.0 | 0.00 | 0.00 | 0.00 | 78 | 1044.0 |
| 20260506143136 | 64 | 236 | 13.0 | 18.0 | 0.00 | 0.00 | 0.00 | 75 | 1044.2 |
| 20260506142236 | 65 | 246 | 10.0 | 17.0 | 0.00 | 0.00 | 0.00 | 73 | 1044.2 |
| 20260506141238 | 66 | 228 | 12.0 | 17.0 | 0.00 | 0.00 | 0.00 | 72 | 1043.9 |
| 20260506140237 | 65 | 226 | 11.0 | 15.0 | 0.00 | 0.00 | 0.00 | 73 | 1043.9 |
| 20260506135336 | 65 | 226 | 9.0 | 14.0 | 0.00 | 0.00 | 0.00 | 73 | 1043.7 |
| 20260506133435 | 65 | 255 | 11.0 | 16.0 | 0.00 | 0.00 | 0.00 | 72 | 1044.0 |
| 20260506132436 | 65 | 225 | 13.0 | 19.0 | 0.00 | 0.00 | 0.00 | 72 | 1044.1 |
| 20260506131435 | 65 | 225 | 8.0 | 11.0 | 0.00 | 0.00 | 0.00 | 72 | 1044.2 |
| 20260506130535 | 65 | 232 | 10.0 | 17.0 | 0.00 | 0.00 | 0.00 | 72 | 1044.2 |
| 20260506125536 | 65 | 232 | 8.0 | 12.0 | 0.00 | 0.00 | 0.00 | 72 | 1044.2 |
| 20260506124539 | 65 | 223 | 10.0 | 13.0 | 0.00 | 0.00 | 0.00 | 72 | 1044.1 |
| 20260506122537 | 65 | 237 | 11.0 | 15.0 | 0.00 | 0.00 | 0.00 | 73 | 1043.7 |
| 20260506121635 | 64 | 215 | 9.0 | 14.0 | 0.00 | 0.00 | 0.00 | 73 | 1044.1 |
| 20260506120635 | 64 | 235 | 9.0 | 14.0 | 0.00 | 0.00 | 0.00 | 73 | 1044.1 |
| 20260506115636 | 64 | 223 | 10.0 | 15.0 | 0.00 | 0.00 | 0.00 | 73 | 1044.0 |
| 20260506114636 | 64 | 223 | 11.0 | 14.0 | 0.00 | 0.00 | 0.00 | 74 | 1043.7 |
| 20260506113637 | 64 | 212 | 11.0 | 15.0 | 0.00 | 0.00 | 0.00 | 74 | 1043.9 |
| 20260506111736 | 64 | 218 | 10.0 | 12.0 | 0.00 | 0.00 | 0.00 | 74 | 1044.1 |
| 20260506110835 | 64 | 218 | 10.0 | 16.0 | 0.00 | 0.00 | 0.00 | 74 | 1044.1 |
| 20260506105837 | 64 | 219 | 11.0 | 15.0 | 0.00 | 0.00 | 0.00 | 74 | 1044.0 |
| 20260506104835 | 64 | 217 | 11.0 | 18.0 | 0.00 | 0.00 | 0.00 | 74 | 1043.7 |
| 20260506104738 | 64 | 204 | 11.0 | 17.0 | 0.00 | 0.00 | 0.00 | 74 | 1043.7 |
| 20260506103738 | 64 | 218 | 12.0 | 15.0 | 0.00 | 0.00 | 0.00 | 74 | 1043.8 |
| 20260506102736 | 64 | 221 | 9.0 | 12.0 | 0.00 | 0.00 | 0.00 | 74 | 1043.6 |
| 20260506100736 | 64 | 203 | 8.0 | 11.0 | 0.00 | 0.00 | 0.00 | 74 | 1043.9 |
| 20260506095738 | 64 | 223 | 8.0 | 15.0 | 0.00 | 0.01 | 0.00 | 74 | 1044.0 |
| 20260506094835 | 64 | 224 | 8.0 | 15.0 | 0.00 | 0.01 | 0.00 | 74 | 1043.7 |
| 20260506093835 | 65 | 223 | 12.0 | 18.0 | 0.00 | 0.01 | 0.00 | 73 | 1043.9 |
| 20260506092838 | 65 | 214 | 5.0 | 11.0 | 0.00 | 0.01 | 0.00 | 73 | 1043.7 |
| 20260506091935 | 65 | 221 | 4.0 | 7.0 | 0.00 | 0.01 | 0.00 | 72 | 1043.7 |
| 20260506090935 | 65 | 242 | 2.0 | 6.0 | 0.00 | 0.05 | 0.00 | 71 | 1043.9 |
| 20260506085937 | 65 | 218 | 5.0 | 9.0 | 0.00 | 0.09 | 0.00 | 71 | 1043.9 |
| 20260506084936 | 65 | 216 | 8.0 | 11.0 | 0.00 | 0.09 | 0.00 | 71 | 1043.9 |
| 20260506083937 | 66 | 213 | 9.0 | 13.0 | 0.00 | 0.09 | 0.00 | 70 | 1044.1 |
| 20260506083035 | 66 | 223 | 2.0 | 4.0 | 0.00 | 0.09 | 0.00 | 70 | 1044.1 |
| 20260506082036 | 66 | 200 | 6.0 | 9.0 | 0.00 | 0.09 | 0.00 | 70 | 1044.1 |
| 20260506073138 | 66 | 221 | 9.0 | 15.0 | 0.00 | 0.09 | 0.00 | 66 | 1044.1 |
| 20260506071139 | 67 | 213 | 9.0 | 12.0 | 0.00 | 0.09 | 0.00 | 65 | 1044.2 |
| 20260506070235 | 67 | 227 | 11.0 | 16.0 | 0.00 | 0.09 | 0.00 | 64 | 1044.2 |
| 20260506062337 | 67 | 222 | 7.0 | 10.0 | 0.00 | 0.09 | 0.00 | 61 | 1044.7 |
| 20260506061337 | 67 | 214 | 8.0 | 11.0 | 0.00 | 0.09 | 0.00 | 62 | 1044.7 |
| 20260506060435 | 67 | 221 | 9.0 | 12.0 | 0.00 | 0.09 | 0.00 | 61 | 1044.8 |
| 20260506050537 | 68 | 228 | 7.0 | 9.0 | 0.00 | 0.09 | 0.00 | 60 | 1045.1 |
| 20260506044636 | 68 | 226 | 11.0 | 17.0 | 0.00 | 0.09 | 0.00 | 59 | 1045.1 |
| 20260506041835 | 68 | 228 | 10.0 | 14.0 | 0.00 | 0.09 | 0.00 | 59 | 1045.0 |
| 20260506035850 | 68 | 227 | 13.0 | 18.0 | 0.00 | 0.09 | 0.09 | 59 | 1045.1 |
| 20260506034851 | 68 | 228 | 7.0 | 10.0 | 0.00 | 0.09 | 0.09 | 57 | 1045.1 |
| 20260506033850 | 68 | 196 | 8.0 | 11.0 | 0.00 | 0.09 | 0.09 | 56 | 1045.0 |
| 20260506032850 | 69 | 226 | 6.0 | 9.0 | 0.00 | 0.09 | 0.09 | 55 | 1044.9 |
| 20260506031849 | 69 | 209 | 8.0 | 14.0 | 0.00 | 0.09 | 0.09 | 53 | 1044.8 |
| 20260506030850 | 70 | 228 | 10.0 | 15.0 | 0.00 | 0.09 | 0.09 | 52 | 1045.0 |
| 20260506025851 | 70 | 196 | 5.0 | 8.0 | 0.00 | 0.09 | 0.09 | 50 | 1044.9 |
| 20260506023048 | 72 | 230 | 6.0 | 8.0 | 0.00 | 0.09 | 0.09 | 46 | 1045.0 |
| 20260506022050 | 72 | 226 | 6.0 | 9.0 | 0.00 | 0.09 | 0.09 | 45 | 1045.0 |
| 20260506021050 | 73 | 232 | 11.0 | 15.0 | 0.00 | 0.09 | 0.09 | 44 | 1044.8 |
| 20260506015149 | 73 | 226 | 8.0 | 12.0 | 0.00 | 0.09 | 0.09 | 44 | 1044.9 |
| 20260506014248 | 73 | 215 | 6.0 | 11.0 | 0.00 | 0.09 | 0.09 | 43 | 1044.8 |
| 20260506013251 | 74 | 226 | 9.0 | 12.0 | 0.00 | 0.09 | 0.09 | 42 | 1044.7 |
| 20260506012349 | 74 | 217 | 14.0 | 21.0 | 0.00 | 0.09 | 0.09 | 42 | 1044.6 |
| 20260506005451 | 74 | 212 | 6.0 | 10.0 | 0.00 | 0.09 | 0.09 | 43 | 1044.2 |
| 20260506004448 | 74 | 217 | 8.0 | 10.0 | 0.00 | 0.09 | 0.09 | 42 | 1044.2 |
| 20260506003450 | 75 | 222 | 11.0 | 15.0 | 0.00 | 0.09 | 0.09 | 41 | 1043.9 |
| 20260506002549 | 75 | 225 | 10.0 | 15.0 | 0.00 | 0.09 | 0.09 | 39 | 1043.7 |
| 20260506001550 | 75 | 220 | 8.0 | 11.0 | 0.00 | 0.09 | 0.09 | 38 | 1043.7 |
| 20260506000549 | 76 | 227 | 14.0 | 20.0 | 0.00 | 0.09 | 0.09 | 37 | 1043.8 |
| 20260505235649 | 76 | 227 | 10.0 | 14.0 | 0.00 | 0.09 | 0.09 | 36 | 1043.6 |
| 20260505234652 | 77 | 228 | 13.0 | 16.0 | 0.00 | 0.09 | 0.09 | 35 | 1043.5 |
| 20260505233748 | 77 | 230 | 12.0 | 16.0 | 0.00 | 0.09 | 0.09 | 35 | 1043.6 |
| 20260505232848 | 77 | 231 | 11.0 | 14.0 | 0.00 | 0.09 | 0.09 | 34 | 1043.5 |
| 20260505230851 | 78 | 224 | 13.0 | 20.0 | 0.00 | 0.09 | 0.09 | 32 | 1043.6 |
| 20260505225949 | 78 | 240 | 12.0 | 15.0 | 0.00 | 0.09 | 0.09 | 32 | 1043.3 |
| 20260505225048 | 79 | 241 | 14.0 | 20.0 | 0.00 | 0.09 | 0.09 | 31 | 1043.1 |
| 20260505224049 | 79 | 258 | 12.0 | 17.0 | 0.00 | 0.09 | 0.09 | 31 | 1043.3 |
| 20260505223052 | 79 | 227 | 16.0 | 22.0 | 0.00 | 0.09 | 0.09 | 32 | 1043.1 |
| 20260505221149 | 79 | 243 | 14.0 | 19.0 | 0.00 | 0.09 | 0.09 | 32 | 1042.8 |
| 20260505220148 | 79 | 241 | 13.0 | 18.0 | 0.00 | 0.09 | 0.09 | 32 | 1043.2 |
| 20260505215148 | 79 | 264 | 16.0 | 26.0 | 0.00 | 0.09 | 0.09 | 32 | 1043.2 |
| 20260505214150 | 79 | 236 | 9.0 | 13.0 | 0.00 | 0.09 | 0.09 | 32 | 1043.3 |
| 20260505213248 | 79 | 246 | 16.0 | 20.0 | 0.00 | 0.09 | 0.09 | 32 | 1043.3 |
| 20260505212348 | 79 | 226 | 20.0 | 28.0 | 0.00 | 0.09 | 0.09 | 32 | 1043.2 |
| 20260505211350 | 79 | 268 | 11.0 | 16.0 | 0.00 | 0.09 | 0.09 | 31 | 1043.0 |
| 20260505210352 | 79 | 274 | 15.0 | 21.0 | 0.00 | 0.09 | 0.09 | 32 | 1042.9 |
| 20260505205349 | 79 | 246 | 17.0 | 24.0 | 0.00 | 0.09 | 0.09 | 30 | 1043.2 |
| 20260505204349 | 80 | 250 | 17.0 | 26.0 | 0.00 | 0.09 | 0.09 | 31 | 1043.2 |
| 20260505203350 | 79 | 214 | 16.0 | 22.0 | 0.00 | 0.09 | 0.09 | 30 | 1043.0 |
| 20260505202448 | 80 | 226 | 16.0 | 25.0 | 0.00 | 0.09 | 0.09 | 30 | 1043.2 |
| 20260505201450 | 79 | 267 | 16.0 | 19.0 | 0.00 | 0.09 | 0.09 | 30 | 1043.2 |
| 20260505200450 | 79 | 226 | 17.0 | 26.0 | 0.00 | 0.09 | 0.09 | 28 | 1043.2 |
| 20260505195450 | 80 | 234 | 17.0 | 25.0 | 0.00 | 0.09 | 0.09 | 29 | 1043.3 |
| 20260505195348 | 80 | 233 | 20.0 | 30.0 | 0.00 | 0.09 | 0.09 | 29 | 1043.3 |
| 20260505193350 | 80 | 244 | 16.0 | 23.0 | 0.00 | 0.09 | 0.09 | 28 | 1043.3 |
| 20260505192449 | 80 | 258 | 17.0 | 24.0 | 0.00 | 0.09 | 0.09 | 27 | 1043.3 |
| 20260505191549 | 80 | 232 | 16.0 | 24.0 | 0.00 | 0.09 | 0.09 | 27 | 1043.3 |
| 20260505190647 | 80 | 241 | 17.0 | 23.0 | 0.00 | 0.09 | 0.09 | 28 | 1043.3 |
| 20260505185650 | 80 | 230 | 13.0 | 17.0 | 0.00 | 0.09 | 0.09 | 29 | 1043.6 |
| 20260505184649 | 80 | 215 | 16.0 | 23.0 | 0.00 | 0.09 | 0.09 | 28 | 1043.6 |
| 20260505183650 | 80 | 228 | 12.0 | 16.0 | 0.00 | 0.09 | 0.09 | 30 | 1043.6 |